星链-5767 (STARLINK-5767 )

导读 | 星芒AI

STARLINK-5767 是 SpaceX 星链计划中的一颗低轨通信卫星,属于该系列的第 5767 号卫星。它主要用于提供全球范围内的高速互联网服务,特别是在偏远和网络覆盖不足的地区。该卫星采用先进的推进和通信技术,具备自动避撞功能,以确保在拥挤的近地轨道中安全运行。作为星链星座的一部分,STARLINK-5767 有助于提升全球互联网接入的普及率和稳定性。

基本信息
目录编号:
55586
目录名称:
STARLINK-5767
国际标识:
2023-020T
轨道中心:
EARTH
卫星名称:
星链-5767
卫星全名:
星链-5767 (STARLINK-5767 )
卫星状态:
在轨 (已飞行1043 天)
发射日期:
2023-02-12 UTC
国别 :
美国 (US)
星等 :
--
轨道信息
数据来源 国际轨道数据 AOE轨道数据
星历时间 2025-12-21T06:24:43+0800
17小时前
查看轨道信息
2025-12-17T10:00:00+0800
4天前
查看轨道信息
半长轴 6937.222km 6937.214km
偏心率 0.0001281 0.000123
轨道倾角 43.005° 43.003°
近地点辐角 272.299° 284.053°
升交点赤经 72.469° 93.394°
平近点角 87.771° 104.293°
近地点 558.196km 558.225km
远地点 559.974km 559.933km
周期 95.838分钟 95.838分钟
每日圈数 15.025345 15.025371
详细信息
固有亮度:
5
最大亮度:
2.5
卫星平台:
Starlink v1.5
覆盖范围:
全球
运营商:
太空探索技术公司
运营商所在国:
美国
制造商(研发单位):
太空探索技术公司
制造商所在国:
美国
使用方式:
暂无
卫星简介
星链(Starlink)计划是由太空探索技术公司(SpaceX)提出的一个巨型低轨卫星互联网星座项目,计划在2019年至2024年间在太空搭建由约1.2万颗卫星组成的“星链”网络,其中1584颗将部署在地球上空550千米处的近地轨道,并从2020年开始工作。该卫星仍在工作。
2D轨道图
3D轨道图
轨道高度分析图
轨道倾角分析图
轨道综合分析图
查看轨道综合分析图